星链-30083 (STARLINK-30083 )

导读

STARLINK-30083是美国SpaceX星链星座的卫星,于2023年4月19日发射升空,隶属于低轨卫星互联网星座项目。它承担全球高速互联网接入服务任务,尤其服务偏远地区与通信基础设施薄弱区域,也为军事通信提供支持,是星链大规模组网部署中的一员,延续了星链星座快速迭代扩张的组网节奏。

Basic Information
目录编号:
56295
目录名称:
STARLINK-30083
国际标识:
2023-056K
轨道中心:
EARTH
卫星名称:
星链-30083
卫星全名:
星链-30083 (STARLINK-30083 )
卫星状态:
在轨 (已飞行1234 天)
发射日期:
2023-04-19 UTC
国别 :
美国 (US)
星等 :
--
Orbit Information
数据来源 国际轨道数据
星历时间: 2026-09-03T20:10:16+0800
16小时前
查看轨道信息
半长轴: 6861.159km
偏心率: 0.0001441
轨道倾角: 43.002°
近地点辐角 274.595°
升交点赤经 259.496°
平近点角 85.474°
近地点: 482.033km
远地点: 484.011km
周期: 94.266分钟
每日圈数: 15.275893
Detailed Information
固有亮度:
5
最大亮度:
0.3
卫星平台:
Starlink v2.0 mini
覆盖范围:
全球
运营商:
太空探索技术公司
运营商所在国:
美国
制造商(研发单位):
太空探索技术公司
制造商所在国:
美国
使用方式:
暂无
Satellite Introduction
星链(Starlink)计划是由太空探索技术公司(SpaceX)提出的一个巨型低轨卫星互联网星座项目,计划在2019年至2024年间在太空搭建由约1.2万颗卫星组成的“星链”网络,其中1584颗将部署在地球上空550千米处的近地轨道,并从2020年开始工作。该卫星仍在工作。
2D Orbit Map
3D Orbit Map
Orbit Altitude Analysis Chart
Orbit Inclination Analysis Chart
Orbit Comprehensive Analysis Chart
View Comprehensive Chart
Conjunction Data List
Event ID Objects TCA Miss Dist (km) Collision Risk Probability Collision Risk Index (CRI) Action
CDM_260902-070205-629505-870021
2026-09-02T
07:02:26+0000
0.213 km
中距离
7.446905E-4 高风险 0.92
CDM_260901-065605-629506-539321
2026-09-01T
06:56:15+0000
0.541 km
远距离
1.666284E-4 高风险 0.79
CDM_260829-060805-629505-990321
2026-08-29T
06:08:20+0000
0.757 km
远距离
3.270819E-5 中风险 0.65
CDM_260903-163905-629506-192721
2026-09-03T
16:39:38+0000
0.884 km
远距离
2.632106E-5 中风险 0.63
CDM_260903-150505-629506-192721
2026-09-03T
15:05:29+0000
1.123 km
极远距离
1.157787E-5 中风险 0.56
CDM_260904-055905-629506-192721
2026-09-04T
05:59:56+0000
1.210 km
极远距离
8.937221E-6 低风险 0.54
CDM_260904-042505-629506-192721
2026-09-04T
04:25:47+0000
1.631 km
极远距离
3.363082E-6 低风险 0.46
CDM_260905-015505-629506-703221
2026-09-05T
01:55:58+0000
1.864 km
极远距离
2.67735E-6 低风险 0.44
CDM_260905-002105-629506-703221
2026-09-05T
00:21:49+0000
2.068 km
极远距离
2.054805E-6 低风险 0.41
CDM_260829-043405-629505-990321
2026-08-29T
04:34:10+0000
2.049 km
极远距离
1.398575E-6 低风险 0.38